EST,Max TemperatureF,Mean TemperatureF,Min TemperatureF,Max Dew PointF,MeanDew PointF,Min DewpointF,Max Humidity, Mean Humidity, Min Humidity, Max Sea Level PressureIn, Mean Sea Level PressureIn, Min Sea Level PressureIn, Max VisibilityMiles, Mean VisibilityMiles, Min VisibilityMiles, Max Wind SpeedMPH, Mean Wind SpeedMPH, Max Gust SpeedMPH,PrecipitationIn, CloudCover, Events, WindDirDegrees
2013-1-1,37,31,25,28,21,11,75,61,47,30.04,29.95,29.89,10,10,9,16,7,21,T,7,Snow,296
2013-1-2,29,25,21,14,13,11,68,59,50,30.23,30.11,30.02,10,10,10,18,8,22,0.00,5,,283
2013-1-3,32,21,9,21,14,6,92,69,46,30.23,30.16,30.09,10,10,8,13,5,16,0.00,4,,284
2013-1-4,33,30,26,22,19,16,69,60,51,30.11,30.07,30.01,10,10,10,25,12,32,0.00,5,,267
2013-1-5,35,30,24,22,20,16,88,72,56,30.37,30.24,30.11,10,10,7,15,6,20,0.00,4,,269
2013-1-6,37,32,27,29,24,22,84,72,59,30.16,30.07,29.99,10,7,5,9,1,13,0.00,8,,290
2013-1-7,40,31,22,30,25,19,88,68,48,30.39,30.31,30.11,10,10,7,13,6,16,0.00,5,,273
2013-1-8,40,28,16,26,20,14,92,73,54,30.40,30.37,30.34,9,5,2,5,0,6,0.00,0,,185
2013-1-9,38,29,19,25,21,16,100,85,69,30.38,30.30,30.17,10,3,2,10,1,15,0.00,2,,275
2013-1-10,45,35,24,27,25,22,92,69,45,30.59,30.52,30.37,10,9,4,14,4,16,0.00,3,,263
2013-1-11,41,35,29,36,31,25,100,80,59,30.49,30.24,30.09,10,7,0,21,6,26,0.31,7,Fog-Rain,77
2013-1-12,41,38,34,39,36,34,100,96,92,30.16,30.13,30.10,5,1,0,7,1,8,0.00,8,Fog,109
2013-1-13,48,42,35,47,42,36,100,97,93,30.11,30.01,29.94,6,1,0,16,5,22,0.00,8,Fog,109
2013-1-14,50,46,42,46,37,21,100,70,39,30.33,30.10,29.91,10,7,0,20,9,23,0.09,5,Fog-Rain,292
2013-1-15,36,31,26,27,23,20,85,69,52,30.39,30.30,30.19,10,9,2,6,1,7,T,4,Snow,188
2013-1-16,33,31,29,31,29,27,100,93,85,30.17,29.98,29.86,10,4,0,10,3,13,0.37,8,Fog-Rain-Snow,79
2013-1-17,37,33,29,29,28,22,100,82,64,30.12,30.04,29.94,10,7,0,10,4,14,0.00,6,Fog,299
2013-1-18,29,25,21,21,10,4,75,56,37,30.46,30.35,30.08,10,9,1,17,8,23,T,4,Snow,299
2013-1-19,47,35,22,27,19,11,62,52,41,30.31,30.09,29.81,10,10,10,16,6,21,0.00,3,,118
2013-1-20,47,35,23,28,16,6,64,46,27,30.10,29.86,29.67,10,10,10,33,14,46,0.00,2,,277
2013-1-21,27,23,18,22,14,7,88,67,46,30.09,29.95,29.87,10,6,0,17,5,22,0.07,7,Fog-Snow,259
2013-1-22,18,13,7,7,-2,-9,66,52,38,30.25,30.11,29.93,10,9,2,23,12,31,T,6,Snow,279
2013-1-23,17,9,1,2,-1,-4,79,65,51,30.29,30.23,30.17,10,10,10,5,6,6,T,4,,271
2013-1-24,23,14,5,7,2,-3,83,59,34,30.52,30.32,30.14,10,9,2,22,7,29,T,4,Snow,298
2013-1-25,17,12,7,11,6,-1,91,75,58,30.51,30.23,30.06,10,6,0,10,3,14,0.07,5,Fog-Snow,57
2013-1-26,26,17,7,12,8,3,88,67,46,30.44,30.24,30.08,10,9,7,12,4,16,T,5,,272
2013-1-27,33,18,3,14,9,-1,88,66,43,30.59,30.52,30.46,10,10,9,7,1,9,0.00,1,,324
2013-1-28,33,27,21,32,26,14,100,86,71,30.44,30.18,30.02,10,3,1,13,4,23,0.31,8,Rain-Snow,86
2013-1-29,37,35,32,37,34,30,100,98,96,30.13,30.05,29.97,2,1,0,10,2,14,0.12,8,Fog-Rain,112
2013-1-30,61,48,34,55,46,34,100,92,84,29.92,29.61,29.18,10,3,0,24,10,33,0.76,8,Fog-Rain,114
2013-1-31,55,39,22,52,27,9,93,68,43,29.80,29.47,29.11,10,8,1,35,19,45,0.54,7,Rain-Snow,256